www.pogodaiklimat.ru

Погода и климат >> Архив погоды >> Канада >> Arviat Climate


ПОГОДА в Arviat Climate

  • Прогноз погоды в Arviat Climate
  • Монитор погоды в Arviat Climate
  • Климат города

АРХИВ ПОГОДЫ в Arviat Climate

Время (UTC), дата Ветер
(напр.,м/с)
 
Видим.   Явления Облачность Т
(С)
Тd
(С)
f
(%)
Тe
(С)
Тes
(С)
Комфортность P
(гПа)
Po
(гПа)
Тmin
(С)
Tmax
(С)
R
(мм)
R24
(мм)
S
(см)
18 10.11 ЮЗ 8 н/о н/о -13.3 -14.3 92 -24 -24 1005.2 1003.9 -24.3 -13.3
21 10.11 ЮЗ 7 н/о н/о -11.6 -12.6 92 -21 -21 1003.9 1002.6
00 11.11 ЮЗ 5 н/о н/о -13.6 -14.7 91 -22 -22 1004.2 1002.9 -19.2 -11.6
03 11.11 З 6 н/о н/о -13.3 -14.5 91 -22 -22 1004.0 1002.7
06 11.11 З 4 н/о н/о -13.6 -14.6 92 -21 -21 1004.8 1003.5 -19.2 -11.6 13
09 11.11 З 5 н/о н/о -14.5 -15.4 93 -23 -23 1005.8 1004.5
12 11.11 СЗ 8 н/о н/о -11.8 -13.2 89 -22 -22 1006.8 1005.5 -15.4 -11.6 <0.5
15 11.11 З 9 н/о н/о -11.4 -12.7 90 -22 -22 1008.5 1007.2
18 11.11 СЗ 7 н/о н/о -14.6 -17.0 82 -25 -25 1010.7 1009.4 -15.4 -10.8
21 11.11 СЗ 7 н/о н/о -15.5 -17.8 82 -26 -26 1012.0 1010.7
00 12.11 З 5 н/о н/о -16.6 -18.3 87 -26 -26 1013.2 1011.9 -16.9 -10.8
03 12.11 СЗ 7 н/о н/о -14.1 -15.4 90 -24 -24 1013.1 1011.8
06 12.11 З 5 н/о н/о -16.5 -18.0 88 -25 -25 1013.4 1012.1 -16.9 -10.8 17
09 12.11 СЗ 4 н/о н/о -17.1 -18.3 90 -25 -25 1014.1 1012.8
12 12.11 СЗ 9 н/о н/о -13.7 -15.0 90 -25 -25 1014.9 1013.6 -17.7 -10.8 <0.5
15 12.11 СЗ 8 н/о н/о -15.0 -16.2 91 -26 -26 1015.7 1014.4
18 12.11 СЗ 10 н/о н/о -12.2 -13.2 92 -23 -23 1017.1 1015.8 -17.7 -12.2
21 12.11 СЗ 10 н/о н/о -13.4 -14.7 90 -25 -25 1018.7 1017.4
00 13.11 СЗ 9 н/о н/о -14.3 -15.9 88 -25 -25 1020.3 1019.0 -17.7 -12.0
03 13.11 СЗ 10 н/о н/о -15.7 -17.5 86 -28 -28 1021.1 1019.8
06 13.11 СЗ 7 н/о н/о -16.6 -18.5 85 -27 -27 1021.8 1020.5 -17.7 -12.0 20
09 13.11 СЗ 5 н/о н/о -16.8 -18.7 85 -26 -26 1022.0 1020.7
12 13.11 З 3 н/о н/о -16.7 -18.6 85 -23 -23 1021.7 1020.4 -17.1 -12.0 <0.5
15 13.11 ЮЗ 2 н/о н/о -16.5 -18.3 86 -21 -21 1020.6 1019.3
18 13.11 З 3 н/о н/о -16.8 -18.4 87 -24 -24 1018.6 1017.3 -17.1 -16.4
21 13.11 СВ 4 н/о {осадки} н/о -15.1 -16.2 91 -22 -22 1014.8 1013.5 1
00 14.11 С 4 н/о {осадки} н/о -12.8 -13.7 93 -20 -20 1012.3 1011.0 -17.1 -11.0 2
03 14.11 СВ 11 н/о н/о -9.5 -10.1 95 -21 -21 1009.8 1008.5 0.5
06 14.11 С 12 н/о {осадки} н/о -13.0 -14.0 92 -25 -25 1011.1 1009.8 -17.1 -9.3 1 5
09 14.11 С 11 н/о н/о -16.6 -17.9 90 -29 -29 1014.7 1013.4
12 14.11 С 9 н/о н/о -18.9 -20.4 88 -32 -32 опасность
обморожения
1017.3 1016.0 -18.9 -9.3 <0.5
15 14.11 С 8 н/о н/о -19.2 -21.1 85 -31 -31 опасность
обморожения
1020.4 1019.1
18 14.11 СЗ 8 н/о н/о -19.2 -21.2 84 -32 -32 опасность
обморожения
1022.5 1021.2 -19.7 -13.0
21 14.11 СЗ 10 н/о н/о -20.3 -22.3 84 -34 -34 опасность
обморожения
1024.0 1022.7
00 15.11 С 10 н/о н/о -19.5 -21.4 85 -33 -33 опасность
обморожения
1025.6 1024.3 -20.7 -18.3
03 15.11 СЗ 9 н/о н/о -23.6 -25.7 83 -38 -38 опасность
обморожения
1027.7 1026.4
06 15.11 СЗ 9 н/о н/о -24.1 -26.4 81 -38 -38 опасность
обморожения
1028.6 1027.3 -24.3 -13.0 7
09 15.11 СЗ 6 н/о н/о -24.4 -26.7 81 -37 -37 опасность
обморожения
1029.1 1027.8
12 15.11 СЗ 6 н/о н/о -23.5 -25.8 81 -36 -36 опасность
обморожения
1029.2 1027.9 -24.4 -13.0 <0.5
15 15.11 З 6 н/о н/о -22.8 -25.1 81 -35 -35 опасность
обморожения
1029.4 1028.1
18 15.11 З 4 н/о н/о -17.9 -20.1 83 -26 -26 1028.4 1027.1 -24.4 -17.9
21 15.11 СЗ 7 н/о н/о -16.4 -18.4 84 -27 -27 1028.5 1027.2
00 16.11 З 3 н/о н/о -18.3 -20.6 82 -26 -26 1028.7 1027.4 -24.4 -16.1
03 16.11 З 3 н/о н/о -17.1 -19.3 83 -24 -24 1028.2 1026.9
06 16.11 СЗ 4 н/о н/о -19.4 -21.4 84 -28 -28 1027.7 1026.4 -24.4 -16.1 7
09 16.11 З 4 н/о н/о -21.8 -23.8 84 -31 -31 опасность
обморожения
1028.1 1026.8
12 16.11 СЗ 3 н/о н/о -23.0 -24.9 84 -30 -30 1027.2 1025.9 -23.3 -16.1 <0.5
15 16.11 н/о н/о -22.3 -24.2 84 1026.5 1025.2
18 16.11 С 1 н/о {осадки} н/о -18.0 -19.9 85 -19 -19 1025.0 1023.7 -23.8 -18.0 0.2
21 16.11 З 2 н/о н/о -16.9 -18.5 87 -22 -22 1023.0 1021.7
00 17.11 СВ 2 н/о н/о -15.9 -17.1 90 -21 -21 1020.1 1018.8 -23.8 -15.8
03 17.11 Ю 10 н/о н/о -9.1 -10.9 87 -20 -20 1016.4 1015.1
06 17.11 ЮВ 12 н/о н/о -7.5 -9.1 88 -19 -19 1012.1 1010.8 -23.8 -7.4 6
09 17.11 ЮВ 15 н/о н/о -6.5 -8.3 87 -18 -18 1007.4 1006.1
12 17.11 ЮВ 15 н/о н/о -6.0 -8.1 85 -17 -17 1003.4 1002.1 -16.0 -7.4 <0.5
15 17.11 ЮВ 17 н/о н/о -5.0 -7.3 84 -17 -17 999.0 997.7

 

Местоположение метеостанции Arviat Climate (Канада): широта 61.10 долгота -94.06 высота над уровнем моря 10 м.

В архиве по умолчанию представлена погода в Arviat Climate за последнюю неделю. Архивные данные за месяц целиком и за предыдущие месяцы, начиная с января 2011 года, Вы можете получить, выбрав интересующий диапазон дат из раскрывающегося списка и нажав кнопку "Ввод!".

Внимание! Время в таблицах - всемирное. Для получения местного времени необходимо прибавить поправку, которая в Arviat Climate равна -6 ч.

Смотрите также архив погоды в соседних городах и на ближайших метеорологических станциях:

Погода в Arviat Airport (Канада) (1 км)
Погода в Rankin Inlet (Канада) (217 км)
Погода в Churchill Climate (Канада) (265 км)
Погода в Tadoule Lake (Канада) (362 км)
Погода в Baker Lake Airport (Канада) (370 км)
Погода в Baker Lake Climate (Канада) (372 км)
Погода в Dubawnt Lake (Канада) (462 км)
Погода в Gillam (Канада) (530 км)
Погода в Back River MAPS (Канада) (567 км)
Погода в Wager Bay (Канада) (579 км)

Пояснения к столбцам:

Ветер - указаны скорость ветра в м/с - средняя за 10 мин, порывы в срок и между сроками (в фигурных скобках) и направление, откуда дует ветер: С - северный, СВ - северо-восточный, В - восточный, ЮВ - юго-восточный, Ю - южный, ЮЗ - юго-западный, З - западный, СЗ - северо-западный.
Видимость - горизонтальная дальность видимости в метрах или километрах. При видимости от 1 до 10 км при отсутствии осадков обычно наблюдается дымка, при ухудшении видимости до 1 км и менее - туман. В сухую погоду видимость может ухудшаться дымом, пылью или мглою.
Явления - указаны атмосферные явления, наблюдавшиеся в срок или в последний час перед сроком; фигурными скобками обозначены явления, наблюдавшиеся между сроками (за 1-3 часа до срока); квадратными скобками обозначены град или гололедные отложения с указанием их диаметра в мм.
Облачность - указаны через наклонную черту общая и нижняя облачность в баллах и высота нижней границы облаков в метрах; квадратными скобками обозначены формы облаков: Ci - перистые, Cs - перисто-слоистые, Cc - перисто-кучевые, Ac - высококучевые, As - высокослоистые, Sc - слоисто-кучевые, Ns - слоисто-дождевые, Cu - кучевые, Cb - кучево-дождевые. Подробнее классификацию облаков см. в Атласе облаков (PDF).
T - Температура воздуха - температура, измеренная на высоте 2 м над землей.
Td - Температура точки росы - температура, при понижении до которой содержащийся в воздухе водяной пар достигнет насыщения.
f - Относительная влажность воздуха - влажноcть воздуха, измеренная на высоте 2 м над землей.
Te - Эффективная температура - температура, которую ощущает одетый по сезону человек в тени. Характеристика душности погоды. При расчете учитывается влияние влажности воздуха и скорости ветра на теплоощущения человека.
Tes - Эффективная температура на солнце - температура, которую ощущает человек, с поправкой на солнечный нагрев. Характеристика знойности погоды. Зависит от высоты солнца над горизонтом, облачности и скорости ветра. Ночью, в пасмурную погоду, а также при ветре 12 м/с и более поправка равна нулю.
P - Атмосферное давление - приведенное к уровню моря атмосферное давление.
Po - Атмосферное давление - измеренное на уровне метеостанции атмосферное давление.
Tmin - Минимальная температура - минимум температуры воздуха на высоте 2 м над землей.
Tmax - Максимальная температура - максимум температуры воздуха на высоте 2 м над землей.
R - Количество осадков - Количество выпавших осадков за период времени, мм. При наведении курсора мыши на число - период времени, за который выпало указанное количество осадков.
R24 - Количество осадков - Количество выпавших осадков за 24 часа, мм.
S - Снежный покров - Высота снежного покрова, см. При наведении курсора мыши на число - состояние снежного покрова и степень покрытия местности в баллах.